Location: Seattle
(47.6060°N, 122.3310°W)
Time: 00:56:43
(UTC-07:00)

ISS - Visible Passes

Search period start: 20 September 2014 00:00
Search period end: 30 September 2014 00:00
Orbit: 413 x 417 km, 51.6° (Epoch: 20 September)

Date Brightness Start Highest point End Pass type
(mag) Time Alt. Az. Time Alt. Az. Time Alt. Az.
20 Sep -3.0 05:01:03 53° NW 05:01:21 56° NNW 05:04:38 10° ENE visible
21 Sep -1.1 04:14:09 26° ENE 04:14:09 26° ENE 04:15:47 10° ENE visible
21 Sep -2.2 05:47:02 15° WNW 05:49:27 39° N 05:52:37 10° ENE visible
22 Sep -2.5 05:00:06 40° NNW 05:00:26 41° N 05:03:38 10° ENE visible
23 Sep -0.8 04:13:08 23° NE 04:13:08 23° NE 04:14:39 10° ENE visible
23 Sep -2.3 05:46:01 15° WNW 05:48:30 42° N 05:51:43 10° E visible
24 Sep -2.3 04:59:03 38° NNW 04:59:26 39° N 05:02:36 10° ENE visible
25 Sep -0.6 04:12:06 21° NE 04:12:06 21° NE 04:13:28 10° ENE visible
25 Sep -2.8 05:44:58 17° WNW 05:47:22 59° NNE 05:50:39 10° E visible
26 Sep -2.6 04:58:03 47° N 04:58:14 48° NNE 05:01:29 10° E visible
26 Sep -3.0 06:31:44 10° WNW 06:35:00 51° SSW 06:38:14 10° SE visible
27 Sep -0.4 04:11:11 18° ENE 04:11:11 18° ENE 04:12:15 10° E visible
27 Sep -3.4 05:44:04 24° WNW 05:45:57 78° SSW 05:49:16 10° ESE visible
28 Sep -2.8 04:57:16 61° E 04:57:16 61° E 05:00:09 10° ESE visible
28 Sep -1.9 06:30:32 10° W 06:33:16 23° SW 06:35:59 10° SSE visible
29 Sep -0.1 04:10:34 12° E 04:10:34 12° E 04:10:54 10° E visible
29 Sep -2.6 05:43:27 31° WSW 05:44:14 36° SW 05:47:19 10° SSE visible
